1484679600.75,253,4.81,73482.0,-16.95,-44.67,-45.07,0,*68
1484679601.98,254,4.81,73480.5,-16.97,-44.47,-44.87,0,*66
1484679603.23,255,4.81,73480.5,-16.95,-44.41,-44.67,0,*6D
1484679604.49,256,4.81,73480.8,-16.95,-44.47,-44.87,0,*66
1484679605.76,257,4.81,73484.8,-16.95,-44.79,-45.07,0,*63
1484679606.97,258,4.81,73484.5,-16.97,-44.79,-44.99,0,*68
1484679608.2,259,4.81,73480.3,-16.95,-44.41,-44.79,0,*6E
1484679609.46,260,4.81,73482.5,-16.95,-44.27,-44.67,0,*6B
1484679610.69,261,4.81,73486.0,-16.95,-44.41,-44.61,0,*6C
1484679611.94,262,4.81,73482.0,-16.95,-44.47,-44.79,0,*60
1484679613.17,263,4.81,73486.3,-16.95,-44.61,-44.99,0,*6B
1484679614.43,264,4.81,73486.5,-16.95,-44.67,-44.99,0,*6A
1484679615.69,265,4.81,73486.3,-16.95,-44.67,-44.87,0,*64
1484679616.95,266,4.81,73484.5,-16.95,-44.67,-44.99,0,*68
1484679618.2,267,4.81,73482.8,-16.91,-44.41,-44.73,0,*6D
1484679619.43,268,4.81,73482.3,-16.95,-44.41,-44.79,0,*6C
1484679620.68,269,4.81,73480.8,-16.95,-44.41,-44.67,0,*62
1484679621.94,270,4.81,73484.0,-16.91,-44.41,-44.73,0,*6B
1484679623.2,271,4.81,73482.0,-16.91,-44.61,-44.93,0,*66
1484679624.44,272,4.81,73484.3,-16.95,-44.61,-44.87,0,*64
1484679625.67,273,4.81,73486.3,-16.95,-44.61,-44.99,0,*6A
1484679626.9,274,4.81,73480.0,-16.95,-44.61,-44.79,0,*63
1484679628.15,275,4.81,73482.0,-16.95,-44.41,-44.67,0,*6F
1484679629.41,276,4.81,73486.3,-16.91,-44.33,-44.61,0,*6B
1484679630.66,277,4.81,73484.0,-16.91,-44.41,-44.73,0,*6C
1484679631.93,278,4.81,73484.8,-16.91,-44.53,-44.93,0,*6E
1484679633.16,279,4.81,73484.3,-16.91,-44.61,-44.99,0,*64
1484679634.37,280,4.81,73482.0,-16.89,-44.53,-44.87,0,*65
1484679635.66,281,4.81,73480.3,-16.91,-44.73,-44.93,0,*6A
1484679636.92,282,4.81,73482.0,-16.91,-44.41,-44.73,0,*66
1484679638.17,283,4.81,73486.8,-16.91,-44.33,-44.41,0,*63
1484679639.43,284,4.81,73486.8,-16.89,-44.33,-44.73,0,*6C
1484679640.68,285,4.81,73482.5,-16.91,-44.41,-44.73,0,*61
1484679641.93,286,4.81,73484.0,-16.89,-44.33,-44.67,0,*6B
1484679643.16,287,4.81,73484.3,-16.91,-44.41,-44.61,0,*60
1484679644.41,288,4.81,73482.3,-16.89,-44.33,-44.67,0,*65
1484679645.69,289,4.81,73486.0,-16.91,-44.21,-44.33,0,*6F
1484679646.95,290,4.81,73486.8,-16.91,-44.33,-44.53,0,*62
1484679648.2,291,4.81,73484.5,-16.89,-44.47,-44.73,0,*6B
1484679649.43,292,4.81,73482.8,-16.89,-44.53,-44.73,0,*6D
1484679650.67,293,4.81,73484.0,-16.91,-44.53,-44.79,0,*6F
1484679651.9,294,4.81,73480.8,-16.91,-44.61,-44.99,0,*67
1484679653.16,295,4.81,73486.8,-16.89,-44.47,-44.73,0,*6F
1484679654.4,296,4.81,73484.0,-16.89,-44.33,-44.67,0,*6A
1484679655.66,297,4.81,73482.3,-16.89,-44.13,-44.33,0,*68
1484679656.9,298,4.81,73480.3,-16.89,-44.33,-44.67,0,*64
1484679658.13,299,4.81,73484.0,-16.91,-44.41,-44.61,0,*6F
1484679659.39,300,4.81,73486.5,-16.89,-44.67,-44.73,0,*60
1484679660.62,301,4.81,73480.8,-16.89,-44.47,-44.87,0,*68
1484679661.88,302,4.81,73486.3,-16.89,-44.33,-44.73,0,*63
1484679663.13,303,4.81,73484.3,-16.91,-44.33,-44.53,0,*69
1484679664.36,304,4.81,73484.3,-16.89,-44.27,-44.67,0,*65
1484679665.59,305,4.81,73486.3,-16.89,-44.27,-44.47,0,*66
1484679666.85,306,4.81,73484.0,-16.89,-44.67,-44.73,0,*66
1484679668.1,307,4.81,73486.0,-16.89,-44.33,-44.73,0,*66
1484679669.36,308,4.81,73482.8,-16.89,-44.47,-44.73,0,*6A
1484679670.58,309,4.81,73486.3,-16.89,-44.33,-44.53,0,*6A
1484679671.82,310,4.81,73484.8,-16.89,-44.47,-44.87,0,*68
1484679673.05,311,4.81,73484.5,-16.89,-44.53,-44.73,0,*67
1484679674.31,312,4.81,73484.0,-16.91,-44.61,-44.93,0,*62
1484679675.57,313,4.81,73486.0,-16.91,-44.73,-44.99,0,*6A
1484679676.81,314,4.88,73488.3,-16.89,-44.53,-44.93,0,*6C
1484679678.07,315,4.81,73486.8,-16.91,-44.79,-45.07,0,*60
1484679679.31,316,4.81,73482.5,-16.89,-44.67,-44.87,0,*6C
1484679680.55,317,4.81,73486.3,-16.91,-44.79,-44.99,0,*64
1484679681.81,318,4.81,73486.0,-16.91,-44.73,-44.99,0,*61
1484679683.04,319,4.81,73486.3,-16.91,-44.61,-44.99,0,*63
1484679684.25,320,4.81,73484.5,-16.89,-44.53,-44.87,0,*6E
1484679685.51,321,4.81,73482.3,-16.89,-44.73,-44.93,0,*68
1484679686.78,322,4.81,73486.8,-16.91,-44.79,-45.07,0,*64
1484679688.01,323,4.81,73484.5,-16.91,-44.53,-44.79,0,*65
1484679689.22,324,4.81,73486.3,-16.89,-44.53,-44.87,0,*6A
1484679690.48,325,4.81,73484.5,-16.91,-44.53,-44.93,0,*67
1484679691.69,326,4.81,73484.3,-16.89,-44.53,-44.87,0,*68
1484679692.95,327,4.81,73480.5,-16.91,-44.41,-44.73,0,*68
1484679694.21,328,4.81,73486.3,-16.89,-44.47,-44.73,0,*68
1484679695.44,329,4.81,73484.0,-16.91,-44.61,-44.79,0,*6E
1484679696.72,330,4.81,73482.5,-16.91,-44.33,-44.73,0,*6B
1484679697.96,331,4.81,73484.3,-16.91,-44.53,-44.79,0,*66
1484679699.21,332,4.81,73486.3,-16.91,-44.33,-44.53,0,*6B
1484679700.46,333,4.81,73486.8,-16.91,-44.41,-44.73,0,*6D
1484679701.72,334,4.81,73482.3,-16.91,-44.33,-44.53,0,*6D
1484679702.95,335,4.81,73480.5,-16.89,-44.07,-44.33,0,*64
1484679704.19,336,4.81,73482.5,-16.89,-44.33,-44.67,0,*61
1484679705.47,337,4.81,73482.3,-16.91,-44.21,-44.67,0,*6A
1484679706.68,338,4.81,73486.8,-16.89,-44.27,-44.53,0,*6D
1484679707.94,339,4.81,73480.5,-16.89,-44.67,-44.73,0,*6A
1484679709.17,340,4.81,73482.8,-16.89,-44.73,-44.87,0,*6A
1484679710.41,341,4.81,73482.3,-16.89,-44.53,-44.93,0,*6C
1484679711.67,342,4.81,73480.0,-16.89,-44.47,-44.73,0,*64
1484679712.92,343,4.81,73486.3,-16.89,-44.47,-44.73,0,*65
1484679714.16,344,4.88,73484.3,-16.91,-44.53,-44.79,0,*64
1484679715.39,345,4.81,73484.5,-16.89,-44.47,-44.87,0,*68
1484679716.64,346,4.81,73486.8,-16.89,-44.33,-44.67,0,*66
1484679717.87,347,4.81,73484.0,-16.89,-44.67,-44.87,0,*68
1484679719.13,348,4.81,73480.8,-16.89,-44.47,-44.73,0,*6E
1484679720.36,349,4.81,73484.8,-16.89,-44.53,-44.93,0,*64
1484679721.6,350,4.81,73484.0,-16.89,-44.53,-44.93,0,*6C
1484679722.81,351,4.81,73486.3,-16.89,-44.53,-44.87,0,*68
1484679724.04,352,4.81,73486.0,-16.89,-44.27,-44.67,0,*66
1484679725.3,353,4.81,73484.0,-16.91,-44.33,-44.61,0,*6D
1484679726.53,354,4.81,73480.5,-16.89,-44.67,-44.87,0,*6A
1484679727.79,355,4.81,73484.0,-16.89,-44.67,-44.93,0,*6E
1484679729.02,356,4.81,73484.0,-16.89,-44.33,-44.87,0,*69
1484679730.25,357,4.81,73486.3,-16.91,-44.53,-44.79,0,*66
1484679731.51,358,4.81,73486.0,-16.91,-44.53,-44.73,0,*63
1484679732.77,359,4.81,73484.5,-16.91,-44.33,-44.53,0,*66
1484679734.01,360,4.88,73488.3,-16.89,-44.33,-44.67,0,*62
1484679735.22,361,4.81,73480.0,-16.89,-44.27,-44.53,0,*61
1484679736.48,362,4.81,73484.8,-16.89,-44.67,-44.93,0,*6A
1484679737.71,363,4.81,73484.0,-16.89,-44.47,-44.87,0,*6C
1484679738.92,364,4.81,73482.5,-16.89,-44.53,-44.87,0,*6E
1484679740.16,365,4.81,73486.0,-16.89,-44.53,-44.93,0,*6A
1484679741.39,366,4.81,73482.0,-16.89,-44.47,-44.87,0,*69
1484679742.63,367,4.88,73486.3,-16.89,-44.47,-44.87,0,*68
1484679743.89,368,4.81,73480.3,-16.89,-44.67,-44.93,0,*60
1484679745.12,369,4.88,73486.0,-16.89,-44.47,-44.87,0,*66
1484679746.38,370,4.81,73486.3,-16.89,-44.73,-44.93,0,*6C
1484679747.62,371,4.88,73484.3,-16.89,-44.67,-44.87,0,*6D
1484679748.85,372,4.81,73484.3,-16.89,-44.67,-44.87,0,*6E
1484679750.06,373,4.81,73482.8,-16.89,-44.27,-44.53,0,*62
1484679751.32,374,4.81,73484.0,-16.91,-44.53,-44.73,0,*6D
1484679752.53,375,4.81,73484.5,-16.89,-44.53,-44.87,0,*6E
1484679753.79,376,4.81,73484.0,-16.91,-44.79,-45.07,0,*65
1484679755.05,377,4.81,73484.0,-16.89,-44.47,-44.93,0,*6C
1484679756.31,378,4.81,73482.8,-16.91,-44.61,-44.93,0,*6E
1484679757.55,379,4.81,73484.8,-16.89,-44.47,-44.87,0,*67
1484679758.77,380,4.81,73482.3,-16.89,-44.33,-44.53,0,*6B
1484679759.97,381,4.81,73482.3,-16.89,-43.87,-44.27,0,*61
1484679761.22,382,4.81,73480.3,-16.89,-44.13,-44.47,0,*6E
1484679762.47,383,4.88,73484.5,-16.87,-44.13,-44.53,0,*64
1484679763.74,384,4.81,73484.0,-16.87,-44.13,-44.47,0,*66
1484679764.96,385,4.81,73484.0,-16.85,-43.87,-44.13,0,*6E
1484679766.19,386,4.81,73486.3,-16.87,-43.95,-44.27,0,*6B
1484679767.47,387,4.81,73484.8,-16.87,-44.33,-44.73,0,*60
1484679768.7,388,4.81,73482.5,-16.85,-44.47,-44.87,0,*65
1484679769.95,389,4.81,73484.3,-16.87,-44.33,-44.53,0,*6C
1484679771.17,390,4.81,73480.8,-16.85,-44.13,-44.53,0,*64
1484679772.42,391,4.81,73484.5,-16.87,-44.27,-44.47,0,*65
1484679773.66,392,4.81,73484.0,-16.85,-44.27,-44.73,0,*63
1484679774.9,393,4.81,73484.0,-16.85,-44.13,-44.47,0,*62
1484679776.15,394,4.81,73482.3,-16.85,-44.13,-44.47,0,*65
1484679777.38,395,4.81,73486.0,-16.87,-44.27,-44.53,0,*64
1484679778.61,396,4.81,73478.5,-16.85,-44.27,-44.73,0,*67
1484679779.87,397,4.81,73482.3,-16.85,-44.47,-44.73,0,*60
1484679781.09,398,4.81,73482.8,-16.85,-44.27,-44.67,0,*6C
1484679782.35,399,4.81,73484.8,-16.87,-44.27,-44.67,0,*6F
1484679783.55,400,4.81,73484.5,-16.85,-44.07,-44.27,0,*6C
1484679784.78,401,4.81,73480.8,-16.85,-44.27,-44.47,0,*69
1484679785.98,402,4.81,73482.3,-16.85,-44.53,-44.87,0,*65
1484679787.22,403,4.81,73484.8,-16.85,-44.27,-44.73,0,*6C
1484679788.45,404,4.81,73486.0,-16.85,-44.47,-44.87,0,*66
1484679789.7,405,4.81,73484.8,-16.85,-44.33,-44.73,0,*6F
1484679790.93,406,4.81,73484.8,-16.85,-44.47,-44.87,0,*64
1484679792.2,407,4.81,73482.8,-16.87,-44.47,-44.67,0,*69
1484679793.43,408,4.81,73486.3,-16.85,-44.53,-44.93,0,*6A
1484679794.68,409,4.81,73484.0,-16.85,-44.33,-44.73,0,*63
1484679795.94,410,4.81,73484.5,-16.85,-44.33,-44.73,0,*6B
1484679797.17,411,4.81,73480.8,-16.85,-44.47,-44.87,0,*62
1484679798.42,412,4.81,73484.0,-16.85,-44.47,-44.73,0,*6A
1484679799.64,413,4.81,73484.0,-16.85,-44.13,-44.53,0,*68
1484679800.89,414,4.81,73486.0,-16.85,-44.13,-44.47,0,*6A
1484679802.12,415,4.81,73480.3,-16.85,-44.47,-44.87,0,*66
1484679803.32,416,4.81,73484.5,-16.85,-44.53,-44.87,0,*60
1484679804.55,417,4.81,73480.0,-16.85,-44.53,-44.73,0,*6A
1484679805.78,418,4.81,73486.8,-16.85,-44.27,-44.47,0,*61
1484679807.02,419,4.81,73482.0,-16.85,-44.13,-44.47,0,*67
1484679808.23,420,4.81,73482.3,-16.85,-44.53,-44.87,0,*65
1484679809.48,421,4.81,73480.0,-16.85,-44.47,-44.73,0,*6A
1484679810.69,422,4.81,73482.0,-16.85,-44.27,-44.53,0,*6D
1484679811.92,423,4.81,73482.5,-16.85,-44.27,-44.73,0,*6E
1484679813.13,424,4.81,73480.3,-16.85,-44.53,-44.87,0,*61
1484679814.37,425,4.81,73482.3,-16.85,-44.47,-44.67,0,*6B
1484679815.62,426,4.81,73484.0,-16.85,-44.33,-44.73,0,*6E
1484679816.86,427,4.81,73480.8,-16.83,-44.47,-44.79,0,*60
1484679818.09,428,4.81,73484.5,-16.83,-44.47,-44.79,0,*6F
1484679819.33,429,4.81,73482.5,-16.83,-44.47,-44.87,0,*6F
1484679820.54,430,4.81,73486.3,-16.83,-44.41,-44.61,0,*69
1484679821.81,431,4.81,73482.5,-16.87,-44.47,-44.67,0,*6C
1484679823.07,432,4.81,73486.0,-16.85,-44.67,-44.93,0,*64
1484679824.28,433,4.81,73484.3,-16.83,-44.27,-44.61,0,*6A
1484679825.52,434,4.81,73484.0,-16.83,-44.67,-44.87,0,*61
1484679826.75,435,4.88,73484.8,-16.83,-44.47,-44.79,0,*63
1484679827.96,436,4.81,73486.0,-16.83,-44.61,-44.79,0,*64
1484679829.19,437,4.81,73486.0,-16.85,-44.27,-44.67,0,*6E
1484679830.44,438,4.88,73484.3,-16.85,-44.33,-44.73,0,*61
1484679831.69,439,4.88,73484.0,-16.85,-44.47,-44.67,0,*66
1484679832.94,440,4.81,73486.5,-16.85,-44.47,-44.93,0,*63
1484679834.2,441,4.81,73482.5,-16.85,-44.67,-44.93,0,*60
1484679835.43,442,4.81,73484.3,-16.85,-44.47,-44.87,0,*64
1484679836.63,443,4.81,73484.0,-16.85,-44.07,-44.27,0,*6B
1484679837.85,444,4.88,73490.5,-16.83,-44.27,-44.61,0,*6A
1484679839.1,445,4.81,73482.8,-16.85,-44.33,-44.73,0,*6B
1484679840.34,446,4.81,73486.8,-16.83,-44.47,-44.87,0,*66
1484679841.55,447,4.81,73482.5,-16.83,-44.61,-44.79,0,*62
1484679842.76,448,4.88,73486.3,-16.83,-44.41,-44.79,0,*6F
1484679844.01,449,4.88,73484.3,-16.83,-44.47,-44.67,0,*67
1484679845.24,450,4.88,73484.8,-16.85,-44.53,-44.73,0,*69
1484679846.5,451,4.88,73484.5,-16.85,-44.73,-44.93,0,*64
1484679847.75,452,4.81,73482.8,-16.83,-44.47,-44.67,0,*6D
1484679849.01,453,4.81,73484.3,-16.81,-44.27,-44.67,0,*68
1484679850.25,454,4.81,73486.3,-16.83,-44.21,-44.61,0,*6D
1484679851.49,455,4.81,73482.8,-16.83,-44.21,-44.79,0,*65
1484679852.71,456,4.81,73482.8,-16.83,-44.41,-44.67,0,*6F
1484679853.95,457,4.88,73484.0,-16.83,-44.61,-44.93,0,*67
1484679855.17,458,4.88,73486.3,-16.83,-44.27,-44.79,0,*6E
1484679856.41,459,4.81,73480.0,-16.83,-44.27,-44.67,0,*60
1484679857.62,460,4.88,73486.8,-16.83,-44.61,-44.87,0,*66
1484679858.85,461,4.81,73482.3,-16.83,-44.47,-44.79,0,*62
1484679860.09,462,4.81,73482.8,-16.83,-44.67,-44.87,0,*62
1484679861.3,463,4.81,73482.8,-16.83,-44.61,-44.79,0,*64
1484679862.56,464,4.88,73486.5,-16.85,-44.33,-44.73,0,*68
1484679863.8,465,4.88,73484.5,-16.85,-44.33,-44.67,0,*6C
1484679865.05,466,4.88,73486.3,-16.85,-44.33,-44.73,0,*6A
1484679866.26,467,4.88,73486.3,-16.85,-44.53,-44.87,0,*66
1484679867.5,468,4.88,73486.3,-16.83,-44.21,-44.79,0,*6B
1484679868.7,469,4.88,73486.3,-16.85,-44.53,-44.87,0,*68
1484679869.91,470,4.81,73486.0,-16.85,-44.53,-44.87,0,*60
1484679871.14,471,4.81,73486.5,-16.83,-44.47,-44.79,0,*63
1484679872.37,472,4.88,73486.8,-16.83,-44.07,-44.47,0,*69
1484679873.58,473,4.88,73484.3,-16.83,-44.07,-44.41,0,*6E
1484679874.81,474,4.88,73484.8,-16.83,-44.07,-44.47,0,*6F
1484679876.05,475,4.81,73482.0,-16.83,-44.27,-44.67,0,*6E
1484679877.28,476,4.88,73486.5,-16.83,-44.27,-44.47,0,*6F
1484679878.49,477,4.88,73484.3,-16.83,-44.61,-44.79,0,*61
1484679879.73,478,4.81,73484.8,-16.81,-44.61,-44.87,0,*6D
1484679881.01,479,4.81,73482.8,-16.81,-44.21,-44.67,0,*66
1484679882.22,480,4.81,73482.3,-16.83,-44.07,-44.41,0,*62
1484679883.43,481,4.88,73484.3,-16.83,-44.27,-44.61,0,*63
1484679884.67,482,4.88,73484.0,-16.83,-44.47,-44.87,0,*6E
1484679885.88,483,4.81,73480.8,-16.83,-44.27,-44.61,0,*61
1484679887.11,484,4.88,73486.5,-16.83,-44.07,-44.47,0,*60
1484679888.35,485,4.81,73484.8,-16.81,-44.61,-44.87,0,*6F
1484679889.61,486,4.88,73484.3,-16.81,-44.47,-44.87,0,*68
1484679890.85,487,4.81,73486.0,-16.83,-44.67,-44.87,0,*69
1484679892.11,488,4.81,73486.0,-16.83,-44.67,-44.93,0,*63
1484679893.37,489,4.88,73486.3,-16.83,-44.67,-44.93,0,*62
1484679894.63,490,4.88,73486.8,-16.81,-44.47,-44.87,0,*6F
1484679895.9,491,4.81,73484.5,-16.83,-44.67,-44.93,0,*6B
1484679897.15,492,4.81,73482.8,-16.81,-44.67,-44.79,0,*6E
1484679898.39,493,4.81,73482.0,-16.83,-44.21,-44.61,0,*66
1484679899.63,494,4.81,73480.5,-16.83,-44.21,-44.61,0,*61
1484679900.87,495,4.88,73486.5,-16.81,-44.27,-44.61,0,*64
1484679902.1,496,4.81,73482.8,-16.83,-44.27,-44.47,0,*61
1484679903.36,497,4.88,73486.8,-16.81,-44.47,-44.79,0,*69
1484679904.6,498,4.88,73486.8,-16.83,-44.87,-45.07,0,*60
1484679905.86,499,4.81,73484.3,-16.81,-44.47,-44.87,0,*66
1484679907.1,500,4.81,73484.5,-16.83,-44.79,-45.07,0,*61
1484679908.38,501,4.88,73484.5,-16.81,-44.67,-45.07,0,*6D
1484679909.59,502,4.81,73486.8,-16.83,-44.41,-44.79,0,*60
1484679910.85,503,4.88,73486.3,-16.83,-44.67,-44.93,0,*61
1484679912.08,504,4.81,73484.8,-16.81,-44.41,-44.61,0,*6D
1484679913.36,505,4.81,73482.5,-16.81,-44.67,-44.93,0,*65
1484679914.58,506,4.81,73484.0,-16.83,-44.61,-44.87,0,*67
1484679915.83,507,4.88,73486.8,-16.81,-44.47,-44.79,0,*61
1484679917.05,508,4.88,73486.8,-16.83,-44.61,-44.87,0,*69
1484679918.26,509,4.81,73480.0,-16.83,-44.61,-44.87,0,*68
1484679919.52,510,4.81,73484.8,-16.83,-44.67,-45.07,0,*6F
1484679920.79,511,4.88,73486.8,-16.83,-44.67,-44.93,0,*62
1484679922.02,512,4.88,73486.8,-16.83,-44.47,-44.79,0,*67
1484679923.23,513,4.88,73488.3,-16.83,-44.41,-44.79,0,*60
1484679924.47,514,4.88,73484.8,-16.83,-44.21,-44.41,0,*6A
1484679925.7,515,4.88,73486.0,-16.83,-44.27,-44.67,0,*69
1484679926.98,516,4.88,73484.0,-16.81,-44.47,-44.67,0,*6E
1484679928.24,517,4.88,73486.0,-16.81,-44.61,-44.93,0,*60
1484679929.49,518,4.88,73486.3,-16.83,-44.87,-44.93,0,*65
1484679930.72,519,4.88,73486.8,-16.83,-44.47,-44.79,0,*6C
1484679931.96,520,4.88,73484.3,-16.81,-44.61,-44.87,0,*61
1484679933.19,521,4.88,73486.0,-16.83,-44.67,-44.79,0,*65
1484679934.43,522,4.88,73486.3,-16.81,-44.61,-44.87,0,*63
1484679935.68,523,4.88,73484.3,-16.81,-44.47,-44.87,0,*66
1484679936.92,524,4.88,73484.8,-16.83,-44.47,-44.87,0,*63
1484679938.13,525,4.81,73484.0,-16.83,-44.41,-44.87,0,*64
1484679939.37,526,4.88,73486.8,-16.83,-44.67,-44.87,0,*63
1484679940.66,527,4.81,73482.5,-16.81,-44.67,-44.93,0,*65
1484679941.87,528,4.81,73480.5,-16.83,-44.61,-44.87,0,*6B
1484679943.14,529,4.88,73484.5,-16.83,-44.67,-44.93,0,*69
1484679944.34,530,4.88,73486.5,-16.83,-44.41,-44.79,0,*61
1484679945.55,531,4.88,73486.5,-16.83,-44.41,-44.79,0,*60
1484679946.76,532,4.88,73486.0,-16.83,-44.61,-44.87,0,*60
1484679947.98,533,4.81,73486.3,-16.83,-44.27,-44.61,0,*6B
1484679949.22,534,4.81,73486.5,-16.83,-44.21,-44.61,0,*6A
1484679950.47,535,4.88,73484.8,-16.83,-44.47,-44.67,0,*6D
1484679951.71,536,4.81,73484.0,-16.83,-44.47,-44.87,0,*60
1484679952.94,537,4.88,73486.5,-16.83,-44.41,-44.67,0,*69
1484679954.15,538,4.88,73486.5,-16.83,-44.41,-44.79,0,*69
1484679955.38,539,4.88,73484.3,-16.81,-44.27,-44.61,0,*63
1484679956.64,540,4.88,73486.8,-16.81,-44.27,-44.67,0,*6B
1484679957.87,541,4.88,73486.3,-16.81,-44.27,-44.61,0,*6C
1484679959.1,542,4.88,73484.3,-16.81,-44.41,-44.79,0,*66
1484679960.36,543,4.81,73482.3,-16.81,-44.47,-44.79,0,*61
1484679961.58,544,4.88,73488.0,-16.81,-44.41,-44.79,0,*60
1484679962.84,545,4.88,73486.5,-16.81,-44.21,-44.61,0,*6E
1484679964.09,546,4.88,73484.8,-16.81,-44.07,-44.47,0,*6D
1484679965.34,547,4.81,73484.3,-16.81,-44.07,-44.47,0,*6C
1484679966.62,548,4.81,73486.8,-16.81,-44.21,-44.47,0,*67
1484679967.85,549,4.88,73490.5,-16.81,-44.41,-44.79,0,*6D
1484679969.1,550,4.81,73482.5,-16.81,-44.41,-44.67,0,*6A
1484679970.38,551,4.88,73488.8,-16.81,-44.21,-44.47,0,*6F
1484679971.63,552,4.81,73482.8,-16.81,-44.27,-44.67,0,*68
1484679972.88,553,4.88,73488.3,-16.81,-44.41,-44.67,0,*69
1484679974.12,554,4.88,73486.3,-16.81,-44.61,-44.87,0,*62
1484679975.35,555,4.88,73484.8,-16.81,-44.61,-44.87,0,*63
1484679976.59,556,4.88,73484.3,-16.81,-44.27,-44.61,0,*6A
1484679977.84,557,4.88,73484.3,-16.81,-44.27,-44.67,0,*6D
1484679979.07,558,4.81,73482.3,-16.81,-44.41,-44.79,0,*6D
1484679980.36,559,4.88,73486.0,-16.81,-44.47,-44.93,0,*6E
1484679981.59,560,4.88,73484.3,-16.81,-44.61,-44.87,0,*65
1484679982.83,561,4.88,73484.5,-16.81,-44.61,-44.87,0,*64
1484679984.11,562,4.88,73484.0,-16.81,-44.67,-44.93,0,*64
1484679985.35,563,4.88,73486.8,-16.81,-44.61,-44.87,0,*66
1484679986.6,564,4.81,73482.0,-16.81,-44.21,-44.41,0,*6F
1484679987.84,565,4.88,73488.0,-16.81,-44.27,-44.61,0,*6A
1484679989.09,566,4.88,73486.5,-16.81,-44.41,-44.67,0,*6F
1484679990.34,567,4.88,73482.5,-16.81,-44.47,-44.79,0,*67
1484679991.57,568,4.88,73486.5,-16.81,-44.41,-44.79,0,*6E
1484679992.8,569,4.81,73482.5,-16.79,-44.13,-44.53,0,*67
1484679994.05,570,4.88,73484.3,-16.81,-44.27,-44.67,0,*68
1484679995.28,571,4.88,73486.3,-16.81,-44.41,-44.87,0,*67
1484679996.51,572,4.88,73488.0,-16.81,-44.41,-44.61,0,*6C
1484679997.74,573,4.88,73484.3,-16.79,-44.33,-44.61,0,*6F
1484679998.96,574,4.88,73486.3,-16.79,-44.13,-44.41,0,*68
1484680000.22,575,4.88,73486.8,-16.81,-44.47,-44.79,0,*64
1484680001.47,576,4.88,73484.5,-16.79,-44.33,-44.73,0,*69
1484680002.73,577,4.88,73490.3,-16.81,-44.47,-44.87,0,*67
1484680003.96,578,4.88,73490.5,-16.79,-44.61,-44.73,0,*60
1484680005.22,579,4.88,73490.0,-16.81,-44.47,-44.79,0,*68
1484680006.5,580,4.88,73484.0,-16.81,-44.67,-44.93,0,*68
1484680007.73,581,4.88,73486.8,-16.79,-44.41,-44.73,0,*64
1484680008.93,582,4.88,73484.0,-16.79,-44.41,-44.79,0,*6D
1484680010.16,583,4.88,73486.8,-16.77,-44.41,-44.79,0,*62
1484680011.4,584,4.88,73486.3,-16.79,-44.73,-44.87,0,*6B
1484680012.63,585,4.88,73482.8,-16.79,-44.73,-44.87,0,*6A
1484680013.92,586,4.88,73482.3,-16.81,-44.67,-44.93,0,*6E
1484680015.17,587,4.88,73484.3,-16.81,-44.47,-44.87,0,*68
1484680016.46,588,4.88,73482.5,-16.81,-44.67,-44.93,0,*60
1484680017.72,589,4.88,73482.5,-16.81,-44.67,-44.87,0,*64
1484680018.97,590,4.88,73484.3,-16.81,-44.47,-44.79,0,*6F
1484680020.23,591,4.88,73486.0,-16.81,-44.67,-44.87,0,*6D
1484680021.47,592,4.88,73484.5,-16.81,-44.61,-44.87,0,*68
1484680022.75,593,4.88,73484.0,-16.81,-44.67,-44.93,0,*6A
1484680023.98,594,4.88,73484.3,-16.81,-44.61,-44.79,0,*6F
1484680025.26,595,4.88,73488.0,-16.81,-44.47,-44.67,0,*65
1484680026.52,596,4.88,73484.0,-16.81,-44.47,-44.87,0,*68
1484680027.8,597,4.88,73484.3,-16.81,-44.67,-44.93,0,*6E
1484680029.09,598,4.88,73484.5,-16.81,-44.67,-44.93,0,*61
1484680030.37,599,4.88,73484.3,-16.81,-44.67,-45.07,0,*6C
1484680031.63,600,4.88,73484.8,-16.81,-44.61,-44.93,0,*65
1484680032.88,601,4.88,73486.8,-16.81,-44.47,-44.79,0,*64
1484680034.14,602,4.88,73486.3,-16.79,-44.21,-44.67,0,*6F
1484680035.39,603,4.88,73484.3,-16.81,-44.67,-44.87,0,*65
1484680036.68,604,4.88,73486.3,-16.81,-44.67,-44.93,0,*67
1484680037.91,605,4.88,73484.0,-16.79,-44.53,-44.73,0,*68
1484680039.14,606,4.88,73486.0,-16.79,-44.53,-44.73,0,*6B
1484680040.43,607,4.88,73490.3,-16.81,-44.67,-44.93,0,*64
1484680041.69,608,4.88,73486.0,-16.83,-44.67,-44.93,0,*69
1484680042.9,609,4.88,73484.8,-16.83,-44.41,-44.79,0,*68
1484680044.13,610,4.88,73486.5,-16.81,-44.41,-44.79,0,*62
1484680045.36,611,4.88,73486.0,-16.81,-44.61,-44.87,0,*60
1484680046.6,612,4.88,73484.8,-16.81,-44.61,-44.87,0,*63
1484680047.81,613,4.88,73482.3,-16.83,-44.61,-44.87,0,*60
1484680049.07,614,4.88,73484.8,-16.81,-44.61,-44.93,0,*60
1484680050.36,615,4.88,73484.0,-16.81,-44.67,-44.93,0,*67
1484680051.64,616,4.88,73484.5,-16.81,-44.67,-44.93,0,*64
1484680052.9,617,4.88,73488.0,-16.81,-44.47,-44.79,0,*63
1484680054.15,618,4.88,73486.8,-16.81,-44.27,-44.67,0,*65
1484680055.41,619,4.88,73488.0,-16.81,-44.27,-44.67,0,*64
1484680056.68,620,4.88,73486.8,-16.81,-44.47,-44.67,0,*68
1484680057.92,621,4.88,73486.0,-16.81,-44.27,-44.61,0,*69
1484680059.15,622,4.88,73488.5,-16.81,-44.61,-44.87,0,*60
1484680060.41,623,4.88,73484.8,-16.81,-44.47,-44.79,0,*64
1484680061.67,624,4.88,73484.5,-16.81,-44.21,-44.41,0,*68
1484680062.9,625,4.88,73486.3,-16.81,-44.07,-44.41,0,*6D
1484680064.13,626,4.88,73486.3,-16.81,-44.07,-44.27,0,*6E
1484680065.38,627,4.88,73488.8,-16.81,-44.07,-44.47,0,*69
1484680066.64,628,4.88,73486.5,-16.81,-44.21,-44.61,0,*66
1484680067.86,629,4.88,73490.5,-16.79,-44.13,-44.53,0,*60
1484680069.1,630,4.88,73484.5,-16.79,-44.21,-44.61,0,*68
1484680070.33,631,4.88,73486.3,-16.79,-44.21,-44.61,0,*69
1484680071.58,632,4.88,73484.8,-16.79,-44.01,-44.33,0,*6F
1484680072.86,633,4.88,73482.3,-16.77,-43.81,-44.01,0,*6E
1484680074.14,634,4.88,73484.8,-16.77,-43.81,-44.21,0,*6B
1484680075.4,635,4.88,73482.0,-16.77,-44.21,-44.41,0,*61
1484680076.63,636,4.88,73484.8,-16.79,-44.13,-44.41,0,*6D
1484680077.87,637,4.88,73486.3,-16.77,-44.13,-44.53,0,*61
1484680079.15,638,4.88,73484.5,-16.77,-44.01,-44.33,0,*6B
1484680080.41,639,4.88,73488.0,-16.77,-44.01,-44.53,0,*6C
1484680081.67,640,4.88,73486.8,-16.77,-44.21,-44.61,0,*61
1484680082.92,641,4.88,73484.5,-16.77,-44.33,-44.61,0,*63
1484680084.15,642,4.88,73484.3,-16.77,-44.41,-44.61,0,*65
1484680085.4,643,4.88,73484.8,-16.77,-44.21,-44.61,0,*62
1484680086.66,644,4.88,73486.5,-16.77,-44.33,-44.61,0,*66
1484680087.91,645,4.88,73490.3,-16.77,-44.41,-44.73,0,*61
1484680089.15,646,4.88,73484.8,-16.75,-44.27,-44.73,0,*60
1484680090.4,647,4.88,73484.8,-16.75,-44.47,-44.67,0,*62
1484680091.65,648,4.88,73484.8,-16.77,-44.21,-44.53,0,*68
1484680092.9,649,4.88,73488.8,-16.77,-44.33,-44.61,0,*6B
1484680094.14,650,4.88,73488.5,-16.75,-44.27,-44.73,0,*67
1484680095.39,651,4.88,73484.8,-16.75,-44.47,-44.67,0,*65
1484680096.62,652,4.88,73486.0,-16.75,-44.27,-44.73,0,*65
1484680097.83,653,4.88,73482.5,-16.75,-44.27,-44.53,0,*66
1484680099.08,654,4.88,73488.0,-16.75,-44.13,-44.47,0,*63
1484680100.31,655,4.88,73488.3,-16.75,-44.27,-44.67,0,*67
1484680101.53,656,4.88,73488.0,-16.75,-44.27,-44.67,0,*64
1484680102.79,657,4.88,73486.8,-16.75,-44.33,-44.73,0,*65
1484680104.02,658,4.88,73490.5,-16.75,-44.47,-44.79,0,*63
1484680105.26,659,4.88,73488.3,-16.75,-44.33,-44.67,0,*6E
1484680106.5,660,4.88,73488.3,-16.77,-44.61,-44.87,0,*6F
1484680107.73,661,4.88,73484.0,-16.75,-44.27,-44.67,0,*60
1484680108.93,662,4.88,73484.8,-16.75,-44.27,-44.53,0,*64
1484680110.15,663,4.88,73482.0,-16.75,-44.13,-44.53,0,*62
1484680111.38,664,4.88,73488.8,-16.75,-44.27,-44.67,0,*65
1484680112.61,665,4.88,73486.5,-16.75,-44.13,-44.53,0,*64
1484680113.81,666,4.88,73490.5,-16.75,-44.27,-44.53,0,*60